Location: Skalnate Pleso
(49.1889°N, 20.2450°E)
Time: 17:07:14
(UTC+01:00)

Cosmos 2150 Rocket - Pass Details

Date: 19 November 2019
Orbit: 750 x 807 km, 74.0° (Epoch: 11 December)

Event Time Altitude Azimuth Distance (km) Brightness Sun altitude
Rises 05:32:26 0° 217° (SW) 3,311 7.1 -13.3°
Reaches altitude 10° 05:34:54 10° 222° (SW) 2,382 6.3 -12.9°
Maximum altitude 05:40:12 53° 299° (WNW) 986 4.2 -12.0°
Drops below altitude 10° 05:45:30 10° 16° (NNE) 2,372 6.5 -11.2°
Sets 05:47:57 0° 21° (NNE) 3,297 7.3 -10.8°
